DELTA 1 DEB, 18870

Orbit data source: Space-Track

DELTA 1 DEB, 18870 is space debris in LEO originally from a launch on Tue, 06 Nov 1973 UTC launched from the Air Force Western Test Range (AFWTR). Debris objects in space refer to the collection of defunct objects orbiting the Earth. Examples of debris include non-operational satellites, rocket bodies, and fragments generated from explosions, collisions, or faulty payload assembly.

Loading next visibility...
Identifier
18870, 1973-086HA
Orbit
LEO
Country
Flag of USUS
Related business
Manufacturer
Unknown
Mission
Spacecraft
Bus & Motor
Unknown
Mass
Unknown
Launch date (UTC)
1973-11-06 (53 years ago)
Launch vehicle
Unknown
Launch site
Air Force Western Test Range (AFWTR)
Object type
Payload
Rocket body
Debris
Shape & HBR
Unknown shape, 0.1 m
Radar Cross Section
Medium (>0.1 m² and <1 m²)

Expand to show TLE details & history
Last TLE update: 4 days ago

TLE from 4 days ago
0 DELTA 1 DEB
1 18870U 73086HA  26252.00419276  .00000572  00000-0  66480-2 0  9994
2 18870 101.7708 168.7364 0358061 359.2633   0.7843 11.95519677593076
Epoch: 2026-09-09T00:06Z
TLE epoch observation values (Epoch: 2026-09-09T00:06:02.254Z)
Latitude
-0.00002°
Longitude
179.16453°
Altitude
1,414.187 km
Speed
7.28 km/s
True Right ascension
11h 14m 56s
True Declination
0° 00' 00"
Sunlit
Object was in daylight at epoch
Visualization orbit readout
Latitude
Unknown
Longitude
Unknown
Altitude
Unknown
Speed
Unknown
Apparent Right ascension
Unknown
Apparent Declination
Unknown
Sunlit
N/A
Visualization observer readout
Local Sidereal Time
10:02:28
Azimuth
Unknown
Elevation
Unknown
Doppler factor
Unknown
Orbital elements
Apogee altitude
1,987.794 km
Perigee altitude
1,409.401 km
Semi-major axis
8,076.735 km
Eccentricity
0.03581
Inclination
101.7708°
RAAN
168.7364°
Arg. of periapsis
359.2633°
True anomaly
0.84309°
Mean anomaly
0.7843°
Eccentric anomaly
0.81342°
Mean motion
2.99013 °/min
Orbital period
120.4 mins
BSTAR
0.006648
Loading maneuver chart data...
Computing Atmospheric mass density...
Loading historical data...
Loading historical data...
Loading historical data...
Loading historical data...
Loading historical data...
Loading historical data...
Loading historical data...

Documentation

Showing up to 5 results
|